DW6569 Weather Reports


Display with metric or nautical units.
time (UTC)temp
F
wind
direction
speed
MPH
gust
MPH
rain 1hr
in
rain 24hr
in
rain mn
in
humidity
%
barometer
mb
20260508194005 67 0 0.0 0.0 0.00 0.00 0.00 40 1012.8
20260508193005 67 0 0.0 0.0 0.00 0.00 0.00 40 1013.2
20260508192005 67 0 0.0 0.0 0.00 0.00 0.00 44 1013.5
20260508191005 66 0 0.0 0.0 0.00 0.00 0.00 43 1013.5
20260508190004 66 0 0.0 0.0 0.00 0.00 0.00 46 1013.8
20260508185004 66 0 0.0 0.0 0.00 0.00 0.00 42 1013.8
20260508184004 65 0 0.0 0.0 0.00 0.00 0.00 46 1014.2
20260508183005 65 0 0.0 0.0 0.00 0.00 0.00 50 1014.2
20260508182005 65 0 0.0 0.0 0.00 0.00 0.00 45 1014.4
20260508181005 64 0 0.0 0.0 0.00 0.00 0.00 47 1014.5
20260508180004 65 0 0.0 0.0 0.00 0.00 0.00 47 1014.5
20260508175004 63 0 0.0 0.0 0.00 0.00 0.00 53 1014.5
20260508174004 64 0 0.0 0.0 0.00 0.00 0.00 53 1014.9
20260508173005 64 0 0.0 0.0 0.00 0.00 0.00 54 1015.2
20260508172005 64 0 0.0 0.0 0.00 0.00 0.00 56 1015.2
20260508171004 62 0 0.0 0.0 0.00 0.00 0.00 55 1015.5
20260508170005 63 0 0.0 0.0 0.00 0.00 0.00 53 1015.5
20260508163005 61 0 0.0 0.0 0.00 0.00 0.00 56 1016.2
20260508162005 60 0 0.0 0.0 0.00 0.00 0.00 54 1016.5
20260508161005 59 0 0.0 0.0 0.00 0.00 0.00 56 1016.5
20260508155009 58 0 0.0 0.0 0.00 0.00 0.00 56 1016.9
20260508154005 58 0 0.0 0.0 0.00 0.00 0.00 56 1016.9
20260508153004 58 0 0.0 0.0 0.00 0.00 0.00 55 1016.9
20260508152005 59 0 0.0 0.0 0.00 0.00 0.00 54 1016.9
20260508151005 58 0 0.0 0.0 0.00 0.00 0.00 59 1016.9
20260508145005 56 0 0.0 0.0 0.00 0.00 0.00 62 1017.2
20260508144005 55 0 0.0 0.0 0.00 0.00 0.00 67 1016.9
20260508142005 55 0 0.0 0.0 0.00 0.00 0.00 68 1016.9
20260508141005 55 0 0.0 0.0 0.00 0.00 0.00 76 1016.9
20260508135004 52 0 0.0 0.0 0.00 0.00 0.00 80 1016.9
20260508134005 51 0 0.0 0.0 0.00 0.00 0.00 82 1016.9
20260508131005 48 0 0.0 0.0 0.00 0.00 0.00 86 1016.5
20260508130005 46 0 0.0 0.0 0.00 0.00 0.00 84 1016.6
20260508125005 45 0 0.0 0.0 0.00 0.00 0.00 88 1016.5
20260508123005 43 0 0.0 0.0 0.00 0.00 0.00 91 1016.5
20260508122005 42 0 0.0 0.0 0.00 0.00 0.00 91 1016.5
20260508121005 41 0 0.0 0.0 0.00 0.00 0.00 91 1016.2
20260508120005 40 0 0.0 0.0 0.00 0.00 0.00 92 1016.5
20260508113005 36 0 0.0 0.0 0.00 0.00 0.00 91 1016.2
20260508112005 35 0 0.0 0.0 0.00 0.00 0.00 91 1015.9
20260508111005 35 0 0.0 0.0 0.00 0.01 0.00 91 1015.5
20260508110005 35 0 0.0 0.0 0.00 0.01 0.00 91 1015.9
20260508105006 35 0 0.0 0.0 0.00 0.01 0.00 91 1015.5
20260508103006 35 0 0.0 0.0 0.00 0.01 0.00 91 1015.2
20260508101006 36 0 0.0 0.0 0.00 0.01 0.00 90 1015.2
20260508100005 36 0 0.0 0.0 0.00 0.01 0.00 90 1015.2
20260508095005 36 0 0.0 0.0 0.00 0.01 0.00 90 1015.0
20260508093005 38 0 0.0 0.0 0.00 0.01 0.00 90 1015.2
20260508092006 38 0 0.0 0.0 0.00 0.01 0.00 90 1015.2
20260508091005 38 0 0.0 0.0 0.00 0.01 0.00 90 1015.2
20260508085005 38 0 0.0 0.0 0.00 0.01 0.00 89 1014.9
20260508082005 39 0 0.0 0.0 0.00 0.01 0.00 88 1014.9
20260508081005 39 0 0.0 0.0 0.00 0.01 0.00 88 1014.9
20260508080005 40 0 0.0 0.0 0.00 0.01 0.00 88 1014.9
20260508074005 40 0 0.0 0.0 0.00 0.01 0.00 87 1014.9
20260508073005 41 0 0.0 0.0 0.00 0.01 0.00 87 1015.2
20260508072005 41 0 0.0 0.0 0.00 0.01 0.00 88 1015.1
20260508071005 41 0 0.0 0.0 0.00 0.01 0.00 87 1014.9
20260508070006 41 0 0.0 0.0 0.00 0.01 0.00 87 1014.9
20260508065006 42 0 0.0 0.0 0.00 0.02 0.00 87 1014.9
20260508064005 42 0 0.0 0.0 0.00 0.03 0.00 86 1014.9
20260508063010 42 0 0.0 0.0 0.00 0.03 0.00 86 1014.9
20260508062005 42 0 0.0 0.0 0.00 0.04 0.00 85 1014.9
20260508060005 42 0 0.0 0.0 0.00 0.04 0.00 84 1015.2
20260508055005 43 0 0.0 0.0 0.00 0.04 0.00 84 1014.9
20260508054006 43 0 0.0 0.0 0.00 0.04 0.00 83 1015.2
20260508053005 43 0 0.0 0.0 0.00 0.04 0.00 83 1015.2
20260508052005 44 0 0.0 0.0 0.00 0.04 0.00 82 1015.2
20260508051005 44 0 0.0 0.0 0.00 0.04 0.00 81 1015.2
20260508050005 44 0 0.0 0.0 0.00 0.04 0.00 81 1015.2
20260508044005 45 0 0.0 0.0 0.00 0.04 0.00 80 1014.9
20260508043005 46 0 0.0 0.0 0.00 0.04 0.00 80 1014.9
20260508041006 47 0 0.0 0.0 0.00 0.06 0.00 78 1014.5
20260508040006 47 0 0.0 0.0 0.00 0.06 0.00 76 1014.5
20260508034005 47 0 0.0 0.0 0.00 0.06 0.06 76 1014.5
20260508033006 47 0 0.0 0.0 0.00 0.06 0.06 76 1014.5
20260508032005 48 0 0.0 0.0 0.00 0.08 0.06 76 1014.5
20260508030006 48 0 0.0 0.0 0.00 0.08 0.06 75 1014.5
20260508025006 49 0 0.0 0.0 0.00 0.08 0.06 74 1014.2
20260508023006 50 0 0.0 0.0 0.00 0.08 0.06 72 1013.8
20260508022006 51 0 0.0 0.0 0.00 0.08 0.06 72 1013.8
20260508021006 51 0 0.0 0.0 0.00 0.08 0.06 72 1013.8
20260508020005 51 0 0.0 0.0 0.00 0.08 0.06 70 1013.5
20260508015006 52 0 0.0 0.0 0.00 0.08 0.06 71 1013.5
20260508014006 52 0 0.0 0.0 0.00 0.08 0.06 70 1013.2
20260508013007 52 0 0.0 0.0 0.00 0.09 0.06 70 1012.8
20260508012005 52 0 0.0 0.0 0.00 0.09 0.06 69 1012.8
20260508011005 53 0 0.0 0.0 0.00 0.10 0.06 69 1012.5
20260508010006 54 0 0.0 0.0 0.00 0.10 0.06 67 1012.1
20260508005007 54 0 0.0 0.0 0.00 0.10 0.06 67 1011.8
20260508004005 55 0 0.0 0.0 0.00 0.11 0.06 65 1011.8
20260508003006 55 0 0.0 0.0 0.00 0.11 0.06 65 1011.5
20260508002007 56 0 0.0 0.0 0.00 0.11 0.06 66 1011.5
20260508001006 56 0 0.0 0.0 0.00 0.11 0.06 66 1011.5
20260508000005 57 0 0.0 0.0 0.00 0.11 0.06 65 1011.5
20260507235006 57 0 0.0 0.0 0.00 0.11 0.06 63 1011.5
20260507234005 58 0 0.0 0.0 0.00 0.11 0.06 64 1011.5
20260507232007 58 0 0.0 0.0 0.00 0.11 0.06 64 1011.5
20260507231007 59 0 0.0 0.0 0.00 0.11 0.06 62 1011.5
20260507230007 59 0 0.0 0.0 0.00 0.12 0.06 62 1011.5
20260507225007 60 0 0.0 0.0 0.00 0.14 0.06 62 1011.5
20260507224007 60 0 0.0 0.0 0.00 0.28 0.06 64 1011.5
20260507222007 60 0 0.0 0.0 0.00 0.32 0.06 63 1011.5
20260507221005 59 0 0.0 0.0 0.00 0.32 0.06 66 1011.1
20260507220004 59 0 0.0 0.0 0.00 0.32 0.06 68 1011.1
20260507215004 59 0 0.0 0.0 0.00 0.32 0.06 68 1011.1
20260507212004 60 0 0.0 0.0 0.00 0.32 0.06 69 1011.1
20260507211005 60 0 0.0 0.0 0.00 0.32 0.06 67 1011.1
20260507210005 60 0 0.0 0.0 0.00 0.32 0.06 68 1011.1
20260507205004 61 0 0.0 0.0 0.00 0.32 0.06 66 1011.1
20260507204005 62 0 0.0 0.0 0.00 0.32 0.06 65 1010.8
20260507203005 61 0 0.0 0.0 0.00 0.32 0.06 63 1010.8
20260507201004 61 0 0.0 0.0 0.00 0.32 0.06 70 1010.8
20260507200004 61 0 0.0 0.0 0.00 0.32 0.06 67 1010.8
20260507195004 60 0 0.0 0.0 0.00 0.32 0.06 74 1011.1